Yuma, AZ

11:49 PM MST on July 29, 2016 (GMT -0700)
Yuma Marine Corps Air Station

Weather History for KNYL - January, 2013

Change the Weather History Date:

Wednesday, January 30, 2013

  Actual Average Record
Temperature  
Mean Temperature 56 °F 60 °F  
Max Temperature 68 °F 71 °F 84 °F (1953)
Min Temperature 44 °F 48 °F 28 °F (1949)
Degree Days  
Heating Degree Days 9 6  
Month to date heating degree days 278 200  
Since 1 July heating degree days 515 504  
Cooling Degree Days 0 0  
Month to date cooling degree days 3 0  
Year to date cooling degree days 3 0  
Growing Degree Days 5 (Base 50)    
Moisture  
Dew Point 36 °F    
Average Humidity 51    
Maximum Humidity 76    
Minimum Humidity 26    
Precipitation  
Precipitation 0.00 in 0.01 in 0.39 in (1890)
Month to date precipitation 1.02 0.36  
Year to date precipitation 1.02 0.36  
Sea Level Pressure  
Sea Level Pressure 30.28 in    
Wind  
Wind Speed 3 mph (NNE)    
Max Wind Speed 12 mph    
Max Gust Speed 15 mph    
Visibility 10 miles    
Events      
T = Trace of Precipitation, MM = Missing Value Source: NWS Daily Summary

Daily Weather History Graph

Daily Weather History Graph

Search for Another Location

Airport or City:

Trip Planner

Search our weather history database for the weather conditions in past years. The results will help you decide how hot, cold, wet, or windy it might be!

Date:

Astronomy

Jan. 30, 2013 Rise Set
Actual Time 7:34 AM MST 6:09 PM MST
Civil Twilight 7:08 AM MST 6:35 PM MST
Nautical Twilight 6:38 AM MST 7:05 PM MST
Astronomical Twilight 6:09 AM MST 7:34 PM MST
Moon 9:55 PM MST 9:19 AM MST
Length of Visible Light 11h 27m
Length of Day
10h 35m
Waning Gibbous, 87% of the Moon is Illuminated
Jan 30
Waning Gibbous
Feb 3
Last Quarter
Feb 10
New
Feb 17
First Quarter
Feb 25
Full

Hourly Weather History & Observations

Time (MST) Temp. Windchill Dew Point Humidity Pressure Visibility Wind Dir Wind Speed Gust Speed Precip Events Conditions
12:55 AM 48.9 °F - 39.0 °F 69% 30.23 in 10.0 mi Calm Calm - N/A   Clear
1:55 AM 46.9 °F - 39.0 °F 74% 30.25 in 10.0 mi NE 3.5 mph - N/A   Clear
2:55 AM 46.9 °F - 39.0 °F 74% 30.27 in 10.0 mi Calm Calm - N/A   Clear
3:55 AM 46.9 °F - 37.9 °F 71% 30.29 in 10.0 mi Calm Calm - N/A   Clear
4:55 AM 46.0 °F 44.8 °F 37.0 °F 71% 30.29 in 10.0 mi NNE 3.5 mph - N/A   Clear
5:00 AM - - - N/A% - - North - - N/A   Unknown
5:55 AM 45.0 °F - 37.0 °F 74% 30.30 in 10.0 mi Calm Calm - N/A   Clear
6:55 AM 44.1 °F - 37.0 °F 76% 30.32 in 10.0 mi Calm Calm - N/A   Partly Cloudy
7:55 AM 45.0 °F 42.6 °F 37.9 °F 76% 30.32 in 10.0 mi NE 4.6 mph - N/A   Partly Cloudy
8:55 AM 48.0 °F - 39.0 °F 71% 30.34 in 10.0 mi ENE 3.5 mph - N/A   Partly Cloudy
9:55 AM 52.0 °F - 37.9 °F 59% 30.35 in 10.0 mi NNE 4.6 mph - N/A   Partly Cloudy
10:55 AM 57.0 °F - 37.9 °F 49% 30.37 in 10.0 mi NNE 5.8 mph - N/A   Partly Cloudy
11:55 AM 61.0 °F - 36.0 °F 39% 30.36 in 10.0 mi NE 6.9 mph - N/A   Partly Cloudy
12:55 PM 63.0 °F - 37.0 °F 38% 30.31 in 10.0 mi NE 8.1 mph - N/A   Partly Cloudy
1:55 PM 64.9 °F - 32.0 °F 29% 30.29 in 10.0 mi NNE 5.8 mph - N/A   Partly Cloudy
2:55 PM 66.0 °F - 32.0 °F 28% 30.26 in 10.0 mi ENE 3.5 mph - N/A   Partly Cloudy
3:55 PM 66.9 °F - 32.0 °F 27% 30.25 in 10.0 mi Calm Calm - N/A   Partly Cloudy
4:55 PM 66.9 °F - 30.9 °F 26% 30.23 in 10.0 mi NNE 4.6 mph - N/A   Partly Cloudy
5:55 PM 66.0 °F - 30.0 °F 26% 30.22 in 10.0 mi Calm Calm - N/A   Partly Cloudy
6:31 PM - - - N/A% - - North - - N/A   Unknown
6:55 PM 61.0 °F - 33.1 °F 35% 30.22 in 10.0 mi North 4.6 mph - N/A   Partly Cloudy
7:55 PM 60.1 °F - 30.9 °F 33% 30.22 in 10.0 mi North 5.8 mph - N/A   Clear
8:55 PM 57.9 °F - 32.0 °F 37% 30.23 in 10.0 mi North 4.6 mph - N/A   Clear
9:55 PM 54.0 °F - 36.0 °F 51% 30.24 in 10.0 mi NE 4.6 mph - N/A   Clear
10:55 PM 52.0 °F - 37.9 °F 59% 30.25 in 10.0 mi Calm Calm - N/A   Partly Cloudy
11:55 PM 51.1 °F - 39.9 °F 66% 30.25 in 10.0 mi Calm Calm - N/A   Clear